Location: Newark
(36.7000°N, 45.1333°E)
Time: 13:29:06
(UTC+00:00)

LightSail 2 - Pass Details

Date: 19 January 2020
Orbit: 698 x 723 km, 24.0° (Epoch: 24 February)

Event Time Altitude Azimuth Distance (km) Brightness Sun altitude
Rises 14:27:38 0° 212° (SSW) 3,079 9.4 -4.0°
Reaches altitude 10° 14:32:32 10° 171° (S) 2,173 7.8 -4.9°
Maximum altitude 14:33:16 10° 162° (SSE) 2,155 7.7 -5.0°
Drops below altitude 10° 14:34:00 10° 154° (SSE) 2,176 7.6 -5.2°
Sets 14:38:57 0° 113° (ESE) 3,107 8.0 -6.1°
